Погода в Тевризе

Погода в Тевризе : погода сейчас, прогноз погоды и архив. Всё, что Вы хотите узнать о погоде в Тевризе!

Хотите узнать прогноз погоды в Тевризе? Тогда Вам сюда: Погода в Тевризе

Поиск расширенной информации на нашем сайте:

Другие новости

Новости СМИ2

Главная страница сайта

Новости сайта

03.07.2017

Напоминаем, что на нашем специализированном сайте Метеоцентр.Азия вы можете получить высокодетализированные автоматические прогнозы погоды по пунктам России, СНГ и мира в авиационном формате (включающие направление и скорость ветра, видимость, явления погоды, количество и форму облачности, нижнюю и верхнюю границу облачности).


Погода в Тевризе - сегодня

Время (UTC), дата Ветер
(°,м/с) 
Видим.   Явления Облачность Т
(°С)
Тd
(°С)
f(%) Тe
(°С)
Pmin
(гПа)
dP
(гПа)
Po
(мм)
O2
(г/м3)
Тmin Tmax R s Состояние
почвы
15 17.05.18 230 (ЮЗ) 20000 м    10/3 600 м кучево-дожд., средняя 
[Cb cap|As op]
+7.4 -4.5 43 +6  1012.8  -1.9  754  296    +7.8       
03 18.05.18 320 (СЗ) 6000 м  слаб. ливневой снег  10/6 700 м кучево-дожд., средняя 
[Cb cap|As op]
+0.2 +0.2 100 -3  1006.2  1.6  749  301  +0    <0.5  равномерный
мокрый или
старый снег
100% 
06 18.05.18 340 (С) 5{13}  н/о    н/о 
-1 -3.9 81 -4  1009.8  3.4  751  304  -1.3         
12 18.05.18 350 (С) 6-13{15}  н/о    н/о 
+1.3 -5.7 60 -2  1015.7  2.9  756  304           
15 18.05.18 340 (С) 5-10{15}  20000 м    10/10 1500 м 
[Sc]
+1 -5.9 60 -2  1018.5  2.8  758  305    +1.4  0.4     
18 18.05.18 330 (СЗ) 3{10}  10 км    ясно 
-1 -6.1 68 -3  1020.9  2.3  759  308           
21 18.05.18 350 (С) 10 км    ясно 
-2.3 -7.8 66 -5  1022.5  1.5  761  310           
00 19.05.18 340 (С) 20000 м    ясно 
-3.2 -7.4 73 -5  1024.8  2.3  762  312           
03 19.05.18 320 (СЗ) 20000 м    8/0 верхняя 
[Cc]
+0.6 -8 52 -1  1026.2  1.5  763  308  -3.6        замёрзшая 
06 19.05.18 270 (З) н/о    н/о 
+4.8 -9.4 35 +3  1026.1  763  303           
09 19.05.18 280 (З) 20000 м    ясно 
+9.6 -6.7 31 +9  1025.2  -0.7  763  298           
12 19.05.18 310 (СЗ) н/о    н/о 
+11.5 -6.7 27 +11  1024.3  -0.8  762  295           
15 19.05.18 200 (Ю) 20000 м    1/0 верхняя 
[Ci sp]
+9.8 -7.2 29 +11  1023.5  -0.8  762  297    +11.8       
18 19.05.18 180 (Ю) 10 км    1/0 верхняя 
[Ci sp]
+3.4 -6.3 49 +3  1023.1  -0.6  761  304           
21 19.05.18 190 (Ю) 10 км    10/0 верхняя 
[Cs]
+4.3 -7.9 41 +3  1022.1  -1  760  302           
00 20.05.18 180 (Ю) 20000 м    10/10 1500 м 
[Sc]
+5.4 -4.1 50 +4  1019.9  -2.1  759  300           
03 20.05.18 180 (Ю) 5-11{11}  20000 м  слаб. снег  9/0 
+9.4 +1.5 58 +8  1017.2  -2.6  757  295  +2.4        влажная 
06 20.05.18 180 (Ю) 4{11}  н/о    н/о 
+11.5 +3.2 57 +11  1015.6  -1.5  756  292           
12 20.05.18 180 (Ю) 4{12}  н/о    н/о 
+20.2 +6.1 40 +20  1010.2  -2.8  752  281           
15 20.05.18 150 (ЮВ) 20000 м    8/0 средняя, верхняя 
[Ac cast|Ci fib]
+19.1 +6.4 43 +20  1007.8  -2.3  750  281    +20.5  0.1     
18 20.05.18 200 (Ю) 10 км    9/0 средняя 
[Ac As]
+17.1 +8.3 56 +17  1006.2  -1.7  749  283           
21 20.05.18 210 (ЮЗ) 10 км    10/0 средняя, верхняя 
[Ac lent|Cs]
+16.4 +9.8 65 +18  1005.8  -0.4  749  283           
00 21.05.18 250 (З) 20000 м    9/0 средняя, верхняя 
[Ac cast|Cc]
+16.2 +10.1 67 +17  1005.3  -0.5  748  283           
03 21.05.18 270 (З) 20000 м    10/0 средняя 
[Ac lent]
+17.8 +10.8 64 +20  1006.5  1.3  749  281  +15.5         
06 21.05.18 290 (З) 7-12{12}  н/о    н/о 
+17.4 +12.9 75 +22  1008.7  2.1  751  282           
Время (UTC), дата Ветер
(°,м/с) 
Видим.   Явления Облачность Т
(°С)
Тd
(°С)
f(%) Тe
(°С)
Pmin
(гПа)
dP
(гПа)
Po
(мм)
O2
(г/м3)
Тmin Tmax R s Состояние
почвы

Для получения пояснительной информации подведите курсор к названию столбца.

ПОГОДА в Тевризе - архив

Всё, что Вы хотите узнать о погоде в Тевризе - удобно и подробно!

Выберите нужную дату (начиная с 1 января 2015* года) и нажмите кнопку "Найти".
Будут отображены архивные сводки погоды по пункту Тевриз, начиная с указанной даты.


Отображать данные в формате CSV (для использования в таблицах Excel)


Внимание! Наш архив погоды предназначен исключительно для личного некоммерческого использования в познавательных целях. Если Вам необходимы официальные справки о состоянии погоды (для производственных, юридических, коммерческих и т.п. целей), обращайтесь в органы Росгидромета.

*Примечание: данная дата относится к архиву по метеостанциям СССР (Россия, СНГ, Балтия).
Архив по метеостанциям Зарубежной Европы и Азии (кроме Китая) хранится 10 дней, по другим регионам земного шара (Китай, Африка, Америка, Австралия, Океания) - 1 день.

Тевриз - район местоположения метеостанции


Название, широта, долгота, высота метеостанции:
Тевриз 57.5°ш. 72.4°д. 67 м над ур. моря [Российская Федерация]

Дополнительная информация

В oтличие oт бoльшинства пoгoдных сайтoв мы публикуем пoдрoбную метеoинфoрмацию в детальнoм прoфессиoнальнoм фoрмате.

Характеристики температуры и влажнoсти вoздуха измеряются на высoте 2 м в тени вдали oт зданий и деревьев.
Скoрoсть ветра измеряется на высoте 10 м (на урoвне рoста челoвека скoрoсть ветра ниже в 1.5-2 раза). Если метеoстанция нахoдится в гoрoде или в лесу, тo скoрoсть ветра занижена на 2-4 м/с пo сравнению с oткрытым местoм. Скoрoсть ветра над акватoриями крупных рек и oзёр, а также на вершинах хoлмoв на 2-5 м/с выше, чем в oбычных услoвиях.
Атмoсфернoе давление в разных тoчках местнoсти мoжет значительнo oтличаться oт давления на метеoстанции, в зависимoсти oт услoвий рельефа (при пoдъёме на 10 м давление пoнижается примернo на 1 мм рт.ст.).